Observations for Trim Patrick St
| Time | AQI | Temp °C | Hum % | Pres Pa | CO μg/m³ | H₂S μg/m³ | NO μg/m³ | NO₂ μg/m³ | O₃ μg/m³ | SO₂ μg/m³ | PM1 μg/m³ | PM2.5 μg/m³ | PM10 μg/m³ |
|---|---|---|---|---|---|---|---|---|---|---|---|---|---|
| Friday 31 July 2026 | |||||||||||||
| 16:28 | 3 | 29.8 | 29 | 69,114 | 0 | 0 | 1.25 | 12.24 | 96.44 | 11.92 | 2 | 8.55 | 9.4 |
| 16:27 | 3 | 29.8 | 28 | 69,114 | 0 | 0 | 1.31 | 8.07 | 68.99 | 11.58 | 2.86 | 8.6 | 9.46 |
| 16:26 | 3 | 30 | 29 | 69,141 | 0 | 0 | 1.23 | 10.03 | 78.63 | 12.27 | 2.86 | 9.36 | 10.3 |
| 16:25 | 2 | 30 | 28 | 69,143 | 0 | 0 | 1.29 | 6.77 | 66.62 | 11.76 | 2 | 8.59 | 9.45 |
| 16:24 | 2 | 30 | 29 | 69,147 | 0 | 0 | 1.32 | 11.64 | 80 | 10.88 | 2 | 8.55 | 9.41 |
| 16:23 | 2 | 29.9 | 29 | 69,147 | 0 | 0 | 1.3 | 8.37 | 77.2 | 11.54 | 2.86 | 9.33 | 10.26 |
| 16:22 | 2 | 29.8 | 29 | 69,149 | 0 | 0 | 1.35 | 10.3 | 75.6 | 10.43 | 3.71 | 9.37 | 10.3 |
| 16:21 | 2 | 29.8 | 29 | 69,120 | 0 | 0 | 1.34 | 8.14 | 76.88 | 11.8 | 2 | 8.57 | 9.42 |
| 16:20 | 2 | 29.8 | 30 | 69,112 | 0 | 0 | 1.27 | 9.96 | 75.31 | 11.04 | 2 | 8.49 | 9.34 |
| 16:19 | 2 | 29.8 | 29 | 69,104 | 0 | 0 | 1.35 | 9.8 | 77.89 | 10.93 | 2 | 8.55 | 9.4 |
| 16:18 | 2 | 29.7 | 29 | 69,094 | 0 | 0 | 1.35 | 9.59 | 73.2 | 11.19 | 3.71 | 10.15 | 11.16 |
| 16:17 | 2 | 29.7 | 30 | 69,118 | 0 | 0 | 1.31 | 8.36 | 64.87 | 10.66 | 3.71 | 10.13 | 11.14 |
| 16:16 | 2 | 29.6 | 30 | 69,122 | 0 | 0 | 1.35 | 12.41 | 84.44 | 10.78 | 3.71 | 10.1 | 11.11 |
| 16:15 | 2 | 29.5 | 31 | 69,090 | 0 | 0 | 1.23 | 9.28 | 75.91 | 10.88 | 2.86 | 9.21 | 10.13 |
| 16:14 | 2 | 29.4 | 30 | 69,078 | 0 | 0 | 1.29 | 8.73 | 72.23 | 10.47 | 2 | 8.5 | 9.35 |
| 16:13 | 2 | 29.3 | 30 | 69,094 | 0 | 0 | 1.21 | 10.32 | 81.31 | 10.67 | 3.71 | 10.88 | 11.97 |
| 16:12 | 2 | 29.2 | 30 | 69,084 | 0 | 0 | 1.27 | 11.67 | 74.75 | 9.75 | 2 | 8.45 | 9.29 |
| 16:11 | 2 | 29.1 | 30 | 69,106 | 0 | 0 | 1.39 | 7.82 | 63.45 | 10.2 | 2 | 8.51 | 9.36 |
| 16:10 | 2 | 29.1 | 31 | 69,074 | 0 | 0 | 1.35 | 11.57 | 74.47 | 9.6 | 2.86 | 9.24 | 10.16 |
| 16:09 | 2 | 28.9 | 30 | 69,088 | 0 | 0 | 1.54 | 8.08 | 65.92 | 9.3 | 2 | 7.69 | 8.46 |